Regional Weather Roundup
Issued by NWS

Home | Current Version | Previous Version | Graphics & Text | Print | Product List | Glossary On
Versions: 1 2 3 4 5 6 7 8 9 10 11 12 13 14 15 16 17 18 19 20 21 22 23 24 25 26 27 28 29 30 31 32 33 34 35 36 37 38 39 40 41 42 43 44 45 46 47 48 49 50
000
ASUS43 KLOT 221708
RWRIL

ILLINOIS REGIONAL WEATHER ROUNDUP
NATIONAL WEATHER SERVICE CHICAGO/ROMEOVILLE IL
1100 AM CST MON JAN 22 2018

NOTE: "FAIR" INDICATES FEW OR NO CLOUDS BELOW 12,000 FEET WITH NO
SIGNIFICANT WEATHER AND/OR OBSTRUCTIONS TO VISIBILITY.

* THESE STATIONS ARE NOT UNDER NWS QUALITY CONTROL. THEY ALSO MAY NOT
  REPORT WEATHER SUCH AS PRECIPITATION OR FOG.

ILZ001-002-007-009-015-016-024-221800-
NORTHWEST ILLINOIS

CITY           SKY/WX    TMP DP  RH WIND       PRES   REMARKS
MOLINE         FAIR      53  50  89 S14       29.44F
STERLING*        N/A    N/A N/A N/A MISG        N/A
SAVANNA*       RAIN      41  40  99 E10       29.48F
$$

ILZ003-004-008-010-011-017-018-221800-
NORTH CENTRAL ILLINOIS

CITY           SKY/WX    TMP DP  RH WIND       PRES   REMARKS
ROCKFORD       DRZL/FOG  44  44 100 N3        29.53F VSB 1/2
FREEPORT*      FOG       38  38 100 E8        29.52F VSB 1   WCI  33
ROCHELLE*      CLOUDY    48  48 100 S12       29.52F FOG
DE KALB*       CLOUDY    47  47 100 S13       29.54F FOG
PERU*          CLOUDY    50  49  97 S17G24    29.53F FOG
$$

ILZ005-006-012>014-019>023-221800-
NORTHEAST ILLINOIS

CITY           SKY/WX    TMP DP  RH WIND       PRES   REMARKS
CHICAGO-OHARE  CLOUDY    51  47  86 S20G25    29.55F
CHICAGO-MIDWAY CLOUDY    53  49  86 S18G31    29.56F
AURORA         CLOUDY    50  48  93 S16G25    29.54F
LANSING*       CLOUDY    52  50  94 S23G30    29.59F
JOLIET*        CLOUDY    52  50  94 S14G26    29.56F
WAUKEGAN       CLOUDY    44  44 100 SE3       29.54F FOG
DUPAGE AIRPORT CLOUDY    50  49  96 S21G32    29.54F
KANKAKEE*      CLOUDY   N/A N/A N/A S22G30    29.59F
WHEELING       CLOUDY    52  49  89 S16G26    29.57F
MORRIS*        CLOUDY    50  49  97 S18G24    29.54F
ROMEOVILLE*    CLOUDY    50  48  93 S18G24    29.56F
NORTHERLY ISL    N/A     52  47  83 S16         N/A
$$

LMZ740>746-221800-
SOUTHERN LAKE MICHIGAN

STATION/POSITION SKY/WX   TEMP    WIND        PRES    VSBY  WAVE
                          AIR SEA DIR/SP/G                  HT/PER
                          (F)     (DEG/KT/KT) (MB)    (MI)  (FT/S)
HARRISON CRIB              49     190/ 27/ 33   N/A
BURNHAM HARBOR             52     200/ 16/ 20   N/A
CALUMET HARBOR             52     170/ 18/ 25 1001.1F
BURNS HARBOR               52     180/ 16/ 30 1003.0F
MICHIGAN CITY              52     160/ 20/ 27   N/A
$$

ILZ025>027-034>036-040-047-049-050-058-095>099-221800-
WEST-CENTRAL ILLINOIS

CITY           SKY/WX    TMP DP  RH WIND       PRES   REMARKS
QUINCY         SUNNY     54  42  64 SW22G32   29.49S
GALESBURG*     CLOUDY    55  51  88 S17G23    29.47F
MACOMB*        MOSUNNY   56  50  79 S22G28    29.49F
JACKSONVILLE*  MOSUNNY   56  50  78 S17G24    29.52F
PITTSFIELD*    MOSUNNY   56  44  63 S21G28    29.51F
$$

ILZ028>032-037-038-041>044-048-051>054-059>061-221800-
CENTRAL ILLINOIS

CITY           SKY/WX    TMP DP  RH WIND       PRES   REMARKS
PONTIAC        CLOUDY    52  51  97 S22       29.56F FOG
BLOOMINGTON    LGT RAIN  51  50  96 S22       29.55F FOG
DECATUR        CLOUDY    53  52  96 S21G29    29.59S
PEORIA         CLOUDY    53  52  96 S16       29.52F FOG
LACON*         CLOUDY    51  51 100 S15       29.51F FOG
LINCOLN*       CLOUDY    55  54  94 S21G29    29.55F
SPRINGFIELD    FAIR      58  52  80 S22G31    29.54F
TAYLORVILLE    CLOUDY    55  52  92 S18G24    29.58F
$$

ILZ033-039-045-046-055>057-062-063-221800-
EAST-CENTRAL ILLINOIS

CITY           SKY/WX    TMP DP  RH WIND       PRES   REMARKS
CHAMPAIGN      CLOUDY    52  50  93 S31G39    29.58F
DANVILLE*      CLOUDY    52  49  90 S25G31    29.60F
RANTOUL*       CLOUDY    53  51  95 S28       29.59F
MATTOON        CLOUDY    52  49  89 S18G31    29.61F
PARIS*         CLOUDY    52  50  92 S29       29.66F
$$

ILZ079-100>102-221800-
SOUTHWEST ILLINOIS

CITY           SKY/WX    TMP DP  RH WIND       PRES   REMARKS
ALTON          MOSUNNY   57  52  82 S13G24    29.57F
BELLEVILLE     PTSUNNY   56  51  82 S20G28    29.57F
CAHOKIA*       SUNNY     59  49  69 S13G25    29.55F
SPARTA*        SUNNY     55  49  79 S22G29    29.62F
$$

ILZ064>066-069>071-074>076-080>082-084>086-088>090-092>094-221800-
SOUTH-CENTRAL ILLINOIS

CITY           SKY/WX    TMP DP  RH WIND       PRES   REMARKS
CARBONDALE     FAIR      56  50  80 S26G32    29.66F
CAIRO*         FAIR      56  52  87 S17G23    29.71F
EFFINGHAM*     CLOUDY    54  51  92 SE16G24   29.65F
MARION         CLOUDY    54  54 100 S16G23    29.69F
MT. VERNON     CLOUDY    55  50  83 S21G29    29.65F
CENTRALIA*     CLOUDY    56  52  87 S18G26    29.63F
SALEM*         CLOUDY    56  50  81 S21       29.63F
METROPOLIS*    CLOUDY    55  51  87 S13G21    29.72F
$$

ILZ067-068-072-073-078-083-087-091-221800-
SOUTHEAST ILLINOIS

CITY           SKY/WX    TMP DP  RH WIND       PRES   REMARKS
LAWRENCEVILLE  CLOUDY    53  50  89 S23G29    29.71F
FLORA*         CLOUDY    55  50  86 S20G29    29.66F
FAIRFIELD*     CLOUDY    54  51  89 S16G22    29.67F
HARRISBURG*    CLOUDY    54  51  89 S16G29    29.70F
ROBINSON*      CLOUDY    52  49  91 S23G33    29.69F
CARMI*         CLOUDY    52  50  90 S21G26    29.70F
$$

ABBREVIATIONS USED IN REMARKS
   TC - TEMPERATURE IN CELSIUS
  WCI - WIND CHILL INDEX
   HX - HEAT INDEX
  VSB - VISIBILITY
$$





USA.gov is the U.S. government's official web portal to all federal, state and local government web resources and services.